TimeEDT,TemperatureF,Dew PointF,Humidity,Sea Level PressureIn,VisibilityMPH,Wind Direction,Wind SpeedMPH,Gust SpeedMPH,PrecipitationIn,Events,Conditions,WindDirDegrees,DateUTC
12:14 AM,19.9,9.3,63,30.19,10.0,Calm,Calm,-,N/A,,Clear,0,2013-03-18 04:14:00
12:35 AM,19.2,9.7,66,30.19,10.0,ESE,5.8,-,N/A,,Clear,110,2013-03-18 04:35:00
12:54 AM,18.5,10.0,70,30.18,10.0,SE,3.5,-,N/A,,Clear,130,2013-03-18 04:54:00
1:14 AM,18.5,10.0,70,30.18,10.0,SSE,3.5,-,N/A,,Clear,150,2013-03-18 05:14:00
1:35 AM,18.0,9.7,70,30.16,10.0,Calm,Calm,-,N/A,,Clear,0,2013-03-18 05:35:00
1:54 AM,17.8,9.3,69,30.16,10.0,ESE,8.1,-,N/A,,Clear,120,2013-03-18 05:54:00
2:15 AM,16.7,8.6,70,30.14,10.0,Calm,Calm,-,N/A,,Clear,0,2013-03-18 06:15:00
2:35 AM,15.6,8.6,74,30.14,10.0,Calm,Calm,-,N/A,,Clear,0,2013-03-18 06:35:00
2:54 AM,14.5,8.8,78,30.14,10.0,Calm,Calm,-,N/A,,Clear,0,2013-03-18 06:54:00
3:15 AM,16.5,8.4,70,30.14,10.0,SE,3.5,-,N/A,,Clear,130,2013-03-18 07:15:00
3:35 AM,17.4,9.1,70,30.13,10.0,SE,5.8,-,N/A,,Clear,130,2013-03-18 07:35:00
3:54 AM,18.1,9.5,69,30.11,10.0,SE,5.8,-,N/A,,Clear,130,2013-03-18 07:54:00
4:15 AM,18.1,9.9,70,30.10,10.0,Calm,Calm,-,N/A,,Clear,0,2013-03-18 08:15:00
4:34 AM,17.8,10.2,72,30.10,10.0,Calm,Calm,-,N/A,,Clear,0,2013-03-18 08:34:00
4:54 AM,18.7,10.9,72,30.08,10.0,East,4.6,-,N/A,,Clear,100,2013-03-18 08:54:00
5:15 AM,19.0,11.7,73,30.07,10.0,East,5.8,-,N/A,,Clear,100,2013-03-18 09:15:00
5:34 AM,19.0,11.7,73,30.06,10.0,SE,5.8,-,N/A,,Clear,130,2013-03-18 09:34:00
5:55 AM,18.7,11.5,74,30.05,10.0,ESE,3.5,-,N/A,,Clear,120,2013-03-18 09:55:00
6:14 AM,19.4,11.8,72,30.05,10.0,ESE,4.6,-,N/A,,Clear,120,2013-03-18 10:14:00
6:35 AM,20.3,11.5,69,30.04,10.0,ESE,5.8,-,N/A,,Clear,110,2013-03-18 10:35:00
6:55 AM,20.7,11.8,69,30.04,10.0,ESE,6.9,-,N/A,,Clear,110,2013-03-18 10:55:00
7:14 AM,21.0,12.2,69,30.03,10.0,ESE,9.2,-,N/A,,Clear,110,2013-03-18 11:14:00
7:35 AM,21.6,12.7,69,30.01,10.0,ESE,5.8,-,N/A,,Clear,120,2013-03-18 11:35:00
7:54 AM,21.7,13.6,71,30.00,10.0,ESE,5.8,-,N/A,,Clear,120,2013-03-18 11:54:00
8:15 AM,22.5,15.1,73,29.98,10.0,East,9.2,-,N/A,,Clear,90,2013-03-18 12:15:00
8:35 AM,23.5,15.4,71,29.96,10.0,Calm,Calm,-,N/A,,Clear,0,2013-03-18 12:35:00
8:54 AM,24.1,15.4,70,29.95,10.0,ENE,4.6,-,N/A,,Clear,70,2013-03-18 12:54:00
9:15 AM,24.6,15.8,69,29.94,10.0,ENE,5.8,-,N/A,,Clear,70,2013-03-18 13:15:00
9:35 AM,25.5,16.0,67,29.92,10.0,East,4.6,-,N/A,,Clear,80,2013-03-18 13:35:00
9:54 AM,26.6,16.7,66,29.92,10.0,ENE,3.5,-,N/A,,Clear,70,2013-03-18 13:54:00
10:15 AM,28.4,17.6,64,29.90,10.0,SSE,8.1,17.3,N/A,,Clear,150,2013-03-18 14:15:00
10:34 AM,29.1,18.0,63,29.89,10.0,ESE,8.1,-,N/A,,Clear,120,2013-03-18 14:34:00
10:55 AM,30.7,18.3,60,29.89,10.0,ESE,8.1,-,N/A,,Clear,120,2013-03-18 14:55:00
11:15 AM,32.0,17.8,56,29.87,10.0,ESE,10.4,-,N/A,,Clear,110,2013-03-18 15:15:00
11:34 AM,33.1,17.2,52,29.85,10.0,ESE,8.1,18.4,N/A,,Clear,110,2013-03-18 15:34:00
11:55 AM,34.2,17.2,50,29.83,10.0,East,11.5,20.7,N/A,,Clear,90,2013-03-18 15:55:00
12:14 PM,34.7,16.7,48,29.81,10.0,ESE,11.5,20.7,N/A,,Clear,120,2013-03-18 16:14:00
12:35 PM,36.1,16.5,45,29.77,10.0,East,10.4,19.6,N/A,,Clear,90,2013-03-18 16:35:00
12:55 PM,37.4,15.6,41,29.74,10.0,East,11.5,18.4,N/A,,Clear,80,2013-03-18 16:55:00
1:14 PM,39.2,14.9,37,29.73,10.0,ESE,12.7,18.4,N/A,,Clear,120,2013-03-18 17:14:00
1:35 PM,40.1,14.5,35,29.72,10.0,ESE,11.5,21.9,N/A,,Clear,110,2013-03-18 17:35:00
1:55 PM,39.7,14.9,36,29.70,10.0,ESE,9.2,-,N/A,,Clear,110,2013-03-18 17:55:00
2:14 PM,39.6,16.2,39,29.69,10.0,ESE,13.8,20.7,N/A,,Clear,120,2013-03-18 18:14:00
2:35 PM,39.6,15.6,38,29.66,10.0,ESE,9.2,20.7,N/A,,Mostly Cloudy,110,2013-03-18 18:35:00
2:55 PM,39.7,17.2,40,29.64,10.0,East,10.4,16.1,N/A,,Overcast,90,2013-03-18 18:55:00
3:14 PM,39.6,19.0,44,29.63,10.0,East,12.7,16.1,N/A,,Overcast,100,2013-03-18 19:14:00
3:35 PM,38.3,21.0,50,29.62,10.0,East,11.5,18.4,N/A,,Overcast,90,2013-03-18 19:35:00
3:55 PM,37.4,22.5,55,29.61,10.0,East,15.0,21.9,N/A,,Overcast,100,2013-03-18 19:55:00
4:15 PM,35.6,25.3,66,29.61,5.0,SE,17.3,21.9,N/A,,Overcast,130,2013-03-18 20:15:00
4:35 PM,34.7,25.2,68,29.61,10.0,ESE,9.2,19.6,N/A,,Overcast,120,2013-03-18 20:35:00
4:49 PM,33.6,25.7,73,29.61,4.0,ESE,9.2,18.4,N/A,,Overcast,110,2013-03-18 20:49:00
5:37 PM,32.0,26.6,80,29.61,1.8,SE,9.2,-,N/A,,Overcast,130,2013-03-18 21:37:00
5:56 PM,32.0,28.4,87,-9999,0.8,East,5.8,-,N/A,,Overcast,100,2013-03-18 21:56:00
6:16 PM,30.2,28.4,93,29.58,1.0,East,3.5,-,N/A,,Overcast,90,2013-03-18 22:16:00
6:36 PM,-9999,-9999,N/A,-9999,1.2,East,3.5,-,N/A,,Scattered Clouds,90,2013-03-18 22:36:00
6:56 PM,-9999,-9999,N/A,-9999,1.2,ESE,4.6,-,N/A,,Unknown,120,2013-03-18 22:56:00
7:16 PM,32.0,-9999,N/A,-9999,1.2,ESE,3.5,-,N/A,,Overcast,120,2013-03-18 23:16:00
7:57 PM,30.2,30.2,100,29.55,0.8,SE,4.6,-,N/A,,Overcast,140,2013-03-18 23:57:00
8:18 PM,32.0,32.0,100,-9999,1.5,ESE,3.5,-,N/A,,Overcast,120,2013-03-19 00:18:00
8:37 PM,32.0,28.4,87,29.54,2.0,SE,6.9,-,N/A,,Overcast,130,2013-03-19 00:37:00
8:57 PM,32.0,28.4,87,29.53,4.0,SSE,5.8,-,N/A,,Overcast,150,2013-03-19 00:57:00
9:17 PM,30.2,28.4,93,29.52,4.0,South,5.8,-,N/A,,Overcast,170,2013-03-19 01:17:00
9:36 PM,-9999,-9999,N/A,-9999,2.0,SSE,4.6,-,N/A,,Mostly Cloudy,160,2013-03-19 01:36:00
9:57 PM,30.2,-9999,N/A,-9999,2.0,South,8.1,-,N/A,,Overcast,190,2013-03-19 01:57:00
10:16 PM,-9999,-9999,N/A,-9999,4.0,South,3.5,-,N/A,,Scattered Clouds,180,2013-03-19 02:16:00
10:36 PM,30.2,-9999,N/A,-9999,10.0,SE,5.8,-,N/A,,Overcast,130,2013-03-19 02:36:00
10:52 PM,31.5,28.2,88,29.50,10.0,Calm,Calm,-,N/A,,Overcast,0,2013-03-19 02:52:00
10:55 PM,31.5,28.4,88,29.50,7.0,SW,3.5,-,N/A,,Overcast,220,2013-03-19 02:55:00
11:15 PM,30.9,28.4,90,29.49,3.0,South,6.9,-,N/A,,Overcast,190,2013-03-19 03:15:00
11:54 PM,30.9,29.3,94,29.48,5.0,Calm,Calm,-,N/A,,Overcast,0,2013-03-19 03:54:00